Location: ?????????
(38.0736°N, 23.2119°E)
Time: 05:36:36
(UTC+00:00)

CZ-4B R/B - Visible Passes

Search period start: 13 July 2024 00:00
Search period end: 23 July 2024 00:00
Orbit: 809 x 880 km, 99.0° (Epoch: 12 July)

Date Brightness Start Highest point End Pass type
(mag) Time Alt. Az. Time Alt. Az. Time Alt. Az.
13 Jul 5.7 19:48:00 10° WSW 19:50:47 14° W 19:53:36 10° WNW visible
14 Jul 5.5 19:33:10 10° SW 19:37:00 19° W 19:40:53 10° NW visible
15 Jul 5.1 19:18:45 10° SSW 19:23:15 26° W 19:27:50 10° NW visible
16 Jul 4.7 19:04:35 10° SSW 19:09:32 34° W 19:14:35 10° NNW visible
17 Jul 4.2 18:50:36 10° S 18:55:50 46° W 19:01:12 10° NNW visible
18 Jul 3.7 18:36:45 10° S 18:42:10 62° WSW 18:47:44 10° NNW visible
19 Jul 3.4 18:23:01 10° SSE 18:28:33 82° WSW 18:34:11 10° NNW visible
20 Jul 3.3 18:09:26 10° SSE 18:14:56 76° ENE 18:20:34 10° N visible
20 Jul 5.8 19:53:40 10° WSW 19:56:02 13° W 19:58:26 10° WNW visible
21 Jul 5.6 19:38:38 10° SW 19:42:15 18° W 19:45:55 10° NW visible
22 Jul 5.3 19:24:08 10° SSW 19:28:30 24° W 19:32:56 10° NW visible
